Hourly Data Report for November 28, 2020

L'ASSOMPTION
QUEBEC
Current Station Operator: ECCC - MSC

45°48'34.000" N
73°26'05.000" W
21.00 m
7014160
71524
WEW

Download Data

Hourly Data (November 2020)
Hourly Data Report for November 28, 2020
TIME
LST
Temp Definition
°C
Dew Point Definition
°C
Rel Hum Definition
%
Precip. Amount Definition
mm

Wind Dir Definition
10's deg

Wind Spd Definition
km/h
Visibility Definition
km
Stn Press Definition
kPa
Hmdx Definition


Wind Chill Definition


Weather Definition


00:00 2.5 2.3 98 0.0 21 5   101.11     LegendNANA
01:00 2.8 2.6 99 0.0 20 6   101.07     LegendNANA
02:00 2.9 2.7 99 0.0 24 3   101.02     LegendNANA
03:00 2.4 2.2 99 0.0 21 9   101.01     LegendNANA
04:00 2.4 2.2 99 0.0 21 6   100.98     LegendNANA
05:00 2.2 2.0 99 0.0 22 5   100.98     LegendNANA
06:00 1.6 1.4 99 0.0 24 4   101.01     LegendNANA
07:00 1.8 1.6 99 0.0 23 3   101.00     LegendNANA
08:00 1.8 1.7 99 0.0 22 4   101.01     LegendNANA
09:00 2.0 1.8 99 0.0 27 4   101.03     LegendNANA
10:00 2.2 2.0 99 0.0 0 1   101.01     LegendNANA
11:00 3.6 3.1 97 0.0 23 7   100.99     LegendNANA
12:00 4.8 2.5 85 0.0 23 6   100.96     LegendNANA
13:00 5.1 2.9 86 0.0 22 8   100.93     LegendNANA
14:00 5.6 2.5 80 0.0 21 12   100.93     LegendNANA
15:00 5.6 2.2 79 0.0 22 10   100.97     LegendNANA
16:00 3.9 1.7 86 0.0 23 12   101.01     LegendNANA
17:00 2.5 1.1 90 0.0 21 11   101.05     LegendNANA
18:00 2.9 1.7 92 0.0 23 9   101.08     LegendNANA
19:00 3.2 1.1 86 0.0 22 11   101.09     LegendNANA
20:00 3.0 0.6 84 0.0 22 8   101.12     LegendNANA
21:00 2.9 0.7 85 0.0 21 6   101.10     LegendNANA
22:00 2.9 0.4 83 0.0 23 4   101.08     LegendNANA
23:00 3.0 0.0 80 0.0 25 7   101.12     LegendNANA

Notes on Data Quality.

Legend

  • E = Estimated
  • M = Missing
  • NA = Not Available*
  • [empty] = Indicates an unobserved value
Date modified: